User: anonymous   Login
Location: Unspecified
(0.0000°N, 0.0000°E)
Time: 14:32:30
(UTC+00:00)
Language:

PROGRESS-M 25M - Orbit

View from above orbital plane
View from above orbital plane
View from above satellite
View from above satellite

Ground track
Ground track

The orbit data is extracted from the following two-line orbital elements,

1 40292U 14067A   15116.18326566  .00016849  00000-0  24679-3 0  9995
2 40292 051.6481 343.8143 0003434 274.9158 179.9634 15.55687816 27819
Epoch (UTC): 26 April 2015 04:23:54
Eccentricity: 0.0003434
inclination: 51.6481°
perigee height: 398 km
apogee height: 402 km
right ascension of ascending node: 343.8143°
argument of perigee: 274.9158°
revolutions per day: 15.55687816
mean anomaly at epoch: 179.9634°
orbit number at epoch: 2781

The dashed part of the orbit path shows where the satellite is in the earth's shadow,  

DLR